YAOGAN-32 2B

导读

YAOGAN-32 2B(遥感三十二号2B)是中国于北京时间2021年11月3日发射的遥感卫星,隶属于中国遥感卫星系列。官方称其主要用于开展空间科学试验、国土资源勘查、农作物估产及防灾减灾等领域,为国民经济发展提供信息服务。作为低轨遥感卫星,它延续了遥感系列高分辨率对地观测能力,可服务于环境监测、城市规划等多元场景,也被国际分析认为具备潜在的军事侦察用途。

Basic Information
目录编号:
49384
目录名称:
YAOGAN-32 2B
国际标识:
2021-099B
轨道中心:
EARTH
卫星名称:
YAOGAN-32 2B
卫星全名:
--
卫星状态:
在轨 (已飞行1714 天)
发射日期:
2021-11-03 UTC
国别 :
中国 (CN)
星等 :
--
Orbit Information
数据来源 国际轨道数据 AOE轨道数据
星历时间 2026-07-14T05:20:58+0800
9小时前
查看轨道信息
2026-07-11T05:00:00+0800
3天前
查看轨道信息
半长轴 7057.641km 7057.645km
偏心率 0.000165 0.0001507
轨道倾角 98.250° 98.249°
近地点辐角 113.079° 117.002°
升交点赤经 328.745° 325.725°
平近点角 247.059° 202.002°
近地点 678.339km 678.444km
远地点 680.669km 680.572km
周期 98.344分钟 98.344分钟
每日圈数 14.642441 14.642427
Detailed Information
使用方式:
暂无
2D Orbit Map
3D Orbit Map
Orbit Altitude Analysis Chart
Orbit Inclination Analysis Chart
Orbit Comprehensive Analysis Chart
View Comprehensive Chart